TimeCEST,TemperatureF,Dew PointF,Humidity,Sea Level PressureIn,VisibilityMPH,Wind Direction,Wind SpeedMPH,Gust SpeedMPH,PrecipitationIn,Events,Conditions,WindDirDegrees,DateUTC
12:55 AM,62.6,57.2,82,30.06,-9999.0,NNE,5.8,-,N/A,,Clear,30,2012-10-20 22:55:00
1:55 AM,62.6,59.0,88,30.06,-9999.0,NNE,4.6,-,N/A,,Clear,20,2012-10-20 23:55:00
2:00 AM,63,59,83,30.08,7,NNE,4.6,,,,,20,2012-10-21 00:00:00
2:55 AM,60.8,57.2,88,30.06,-9999.0,NNE,4.6,-,N/A,,Clear,30,2012-10-21 00:55:00
3:55 AM,60.8,57.2,88,30.06,-9999.0,NE,5.8,-,N/A,,Clear,40,2012-10-21 01:55:00
4:55 AM,60.8,57.2,88,30.04,-9999.0,NNE,6.9,-,N/A,,Clear,20,2012-10-21 02:55:00
5:00 AM,61,57,82,30.06,9,NNE,6.9,,,,,20,2012-10-21 03:00:00
5:55 AM,60.8,57.2,88,30.04,-9999.0,NNE,6.9,-,N/A,,Clear,30,2012-10-21 03:55:00
7:55 AM,59.0,55.4,88,30.04,-9999.0,NNE,5.8,-,N/A,,Clear,30,2012-10-21 05:55:00
8:00 AM,60,55,79,30.05,7,NNE,5.8,,,,,30,2012-10-21 06:00:00
8:55 AM,62.6,57.2,82,30.04,-9999.0,NNE,5.8,-,N/A,,Clear,20,2012-10-21 06:55:00
9:55 AM,68.0,59.0,73,30.06,-9999.0,North,3.5,-,N/A,,Clear,10,2012-10-21 07:55:00
10:55 AM,71.6,59.0,64,30.06,-9999.0,NNE,3.5,-,N/A,,Clear,30,2012-10-21 08:55:00
11:00 AM,71,60,59,30.08,12,NNE,3.5,,,,,30,2012-10-21 09:00:00
11:55 AM,75.2,62.6,65,30.06,-9999.0,South,1.2,-,N/A,,Clear,170,2012-10-21 09:55:00
12:55 PM,77.0,64.4,65,30.04,-9999.0,SSW,3.5,-,N/A,,Clear,210,2012-10-21 10:55:00
1:55 PM,75.2,64.4,69,30.04,-9999.0,SSW,5.8,-,N/A,,Clear,210,2012-10-21 11:55:00
2:00 PM,76,65,60,30.05,16,SSW,5.8,,,,,210,2012-10-21 12:00:00
2:55 PM,75.2,66.2,73,30.04,-9999.0,SSW,4.6,-,N/A,,Clear,210,2012-10-21 12:55:00
3:55 PM,75.2,64.4,69,30.01,-9999.0,SSW,5.8,-,N/A,,Clear,210,2012-10-21 13:55:00
4:55 PM,73.4,66.2,78,30.01,-9999.0,SW,4.6,-,N/A,,Clear,220,2012-10-21 14:55:00
5:00 PM,74,67,71,30.02,16,SW,4.6,,,,Partly Cloudy,220,2012-10-21 15:00:00
6:55 PM,69.8,66.2,88,30.04,-9999.0,NNW,1.2,-,N/A,,Clear,330,2012-10-21 16:55:00
7:55 PM,68.0,64.4,88,30.04,-9999.0,North,2.3,-,N/A,,Clear,360,2012-10-21 17:55:00
8:00 PM,68,64,85,30.04,9,North,2.3,,,,Partly Cloudy,0,2012-10-21 18:00:00
8:55 PM,68.0,64.4,88,30.04,-9999.0,ENE,3.5,-,N/A,,Clear,70,2012-10-21 18:55:00
9:55 PM,68.0,64.4,88,30.04,-9999.0,NE,3.5,-,N/A,,Clear,40,2012-10-21 19:55:00
10:55 PM,66.2,59.0,78,30.04,-9999.0,ENE,3.5,-,N/A,,Clear,60,2012-10-21 20:55:00
11:00 PM,67,60,72,30.05,9,ENE,3.5,,,,Partly Cloudy,60,2012-10-21 21:00:00
11:55 PM,66.2,57.2,73,30.04,6.2,NNE,2.3,-,N/A,,Partly Cloudy,30,2012-10-21 21:55:00